Address 0xe24d33f027be90eb2c355c77d37dac2b4d0a2f65 7

 
Txn Hash
Block
From
To
Value [Txn Fee]
0x2bbfe4b27298990f3cca32484a0f717b698baf443ef7a1e00537df5c529ad12723272462021-10-18 8:07:212 mins ago0xe24d33f027be90eb2c355c77d37dac2b4d0a2f65OUT Uniswap V3: Router20 ETH0.00070841602 ETH
0xb66dc0f7b4c8c59eb5bda036175df568db8ed90ef1fdfcff7cd429326c95104423270462021-10-18 7:59:469 mins ago0xe24d33f027be90eb2c355c77d37dac2b4d0a2f65OUT Uniswap V3: Router20 ETH0.000707006293 ETH
0xe319aec63ffbbc737044cc989d440bbb158f91767965b5e84888d665c03b9da423269282021-10-18 7:54:4115 mins ago0xe24d33f027be90eb2c355c77d37dac2b4d0a2f65OUT Uniswap V3: Router0 ETH0.00085027175 ETH
0x3756b2c81b98a66b5e5ec210dd6931d81d801d5cefaf98ffabda6d3f2784e80c23269052021-10-18 7:54:1915 mins ago0xe24d33f027be90eb2c355c77d37dac2b4d0a2f65OUT Uniswap V3: Router20 ETH0.000706441146 ETH
0x72c273342df03eec6b6ea7f23d3330457ec866817abf391970e2892fcd9fa18523268822021-10-18 7:53:5215 mins ago0xe24d33f027be90eb2c355c77d37dac2b4d0a2f65OUT Uniswap V3: Router20 ETH0.000711240183 ETH
0x29ec229136ef507760771772caba8ab0fe6b388bccd82a271e2d94f9e3e1e01423268192021-10-18 7:51:1018 mins ago0xe24d33f027be90eb2c355c77d37dac2b4d0a2f65OUT Uniswap V3: Router20 ETH0.000707516495 ETH
0xe246ad67a4d763a85bcecd973e8fe3ecada3ecb29db53696e7add0891aa3fb4a23267682021-10-18 7:48:1621 mins ago0xe24d33f027be90eb2c355c77d37dac2b4d0a2f65OUT Uniswap V3: Router20 ETH0.000710120094 ETH
0x1c10c1e66235d368d2679b92031afdc961d9e1b11aefd09033f1200b3532483023267592021-10-18 7:48:1621 mins ago0xe24d33f027be90eb2c355c77d37dac2b4d0a2f65OUT Uniswap V3: Router20 ETH0.000707887765 ETH
0x220b312f709d83a2b6b9c4403c330afc3c8959490da8b7a399e3093c6e023a5c23266832021-10-18 7:43:5825 mins ago0xe24d33f027be90eb2c355c77d37dac2b4d0a2f65OUT Uniswap V3: Router20 ETH0.000708087136 ETH
0x24579d2a67689db29f5bfb84aeb9b4fd91d8539645d88116846578fd4848e2ca23266092021-10-18 7:39:0630 mins ago0xe24d33f027be90eb2c355c77d37dac2b4d0a2f65OUT Uniswap V3: Router20 ETH0.000707491377 ETH
0x68ba6e324142e153482b84499525a13d5f14e27459b53bb17035a38a35414cfd23265972021-10-18 7:39:0630 mins ago0xe24d33f027be90eb2c355c77d37dac2b4d0a2f65OUT Uniswap V3: Router20 ETH0.00070857379 ETH
0xdb1ffbbb270fa2923bc911a2050f7e408a3d5616f143b48aa428050eab049fe723265932021-10-18 7:39:0630 mins ago0xe24d33f027be90eb2c355c77d37dac2b4d0a2f65OUT Uniswap V3: Router20 ETH0.00070915856 ETH
0xa923ef7b8e0c3e56477e019395c010ac712d444ef536e4879c56e298c2cf45ff23262482021-10-18 7:19:4949 mins ago0xe24d33f027be90eb2c355c77d37dac2b4d0a2f65OUT Uniswap V3: Router0 ETH0.000850986033 ETH
0x50ba9abc4663d97255b73fe1f7c9407d2d8baa35d64e25adebfe68ec09abd91e23262442021-10-18 7:19:4949 mins ago0xe24d33f027be90eb2c355c77d37dac2b4d0a2f65OUT Uniswap V3: Router0 ETH0.000850964055 ETH
0x8545f7cadca4268c623c4339d3e7263da34dcabbde35157af954a1c8ca55875023259892021-10-18 7:06:461 hr 2 mins ago0xe24d33f027be90eb2c355c77d37dac2b4d0a2f65OUT Uniswap V3: Router0 ETH0.000859592504 ETH
0x20b894d3104c469f73b73446231a9fbf11a2734d56b2c2f803f7be9ad412235523259622021-10-18 7:05:201 hr 4 mins ago0xe24d33f027be90eb2c355c77d37dac2b4d0a2f65OUT Uniswap V3: Router0 ETH0.000863727781 ETH
0xaa15d343441f632f62b310dc46535235dcb21f7c08ac501e1d9a6ac12f58829f23257482021-10-18 6:55:101 hr 14 mins ago0xe24d33f027be90eb2c355c77d37dac2b4d0a2f65OUT Uniswap V3: Router20 ETH0.000715856959 ETH
0x635825b74a390728cb9fe03e86c6afc730bf9401a90a8c66dbea27fd9c77fbf223256202021-10-18 6:50:281 hr 19 mins ago0xe24d33f027be90eb2c355c77d37dac2b4d0a2f65OUT Uniswap V3: Router20 ETH0.000714769854 ETH
0xb86977a21f0b05beca58eb26a7c1627875b48bb733266d20daeef06db78167dc23254582021-10-18 6:40:561 hr 28 mins ago0xe24d33f027be90eb2c355c77d37dac2b4d0a2f65OUT Uniswap V3: Router0 ETH0.00085883264 ETH
0xd89e91aa50cb61df342017d357315896557e8117aa704f6cc4ad0d3b0642b14823254532021-10-18 6:40:561 hr 28 mins ago0xe24d33f027be90eb2c355c77d37dac2b4d0a2f65OUT Uniswap V3: Router0 ETH0.000859025974 ETH
0x7f6590fa3f2e0e5ed83495e780ac2f4ab7352d560fe8e16d64f4c390ac979d2823254492021-10-18 6:40:561 hr 28 mins ago0xe24d33f027be90eb2c355c77d37dac2b4d0a2f65OUT Uniswap V3: Router0 ETH0.00085851253 ETH
0xb511578664f76f6c585b3e01b5e9a6d95648115d2485ca0afd12f2bce6121ec723253382021-10-18 6:32:011 hr 37 mins ago0xe24d33f027be90eb2c355c77d37dac2b4d0a2f65OUT Uniswap V3: Router20 ETH0.000714798379 ETH
0x158018f07deb97bb4e706ac4dbcfdd032b754fdc288c8b1372f060d6f6885ec923252852021-10-18 6:28:371 hr 41 mins ago0xe24d33f027be90eb2c355c77d37dac2b4d0a2f65OUT Uniswap V3: Router20 ETH0.000714762723 ETH
0x3145e5223ff7a6788dfe24d251a8b01b336128830a462625876ba196887805fb23252552021-10-18 6:27:431 hr 42 mins ago0xe24d33f027be90eb2c355c77d37dac2b4d0a2f65OUT Uniswap V3: Router20 ETH0.000714763515 ETH
0x8f806b301185ae3f4e337c1392e3bdd2b1e07dbeeabe6555e00df652781eb82523252482021-10-18 6:26:541 hr 42 mins ago0xe24d33f027be90eb2c355c77d37dac2b4d0a2f65OUT Uniswap V3: Router20 ETH0.000714786493 ETH
[ Download CSV Export 
Parent Txn Hash Block From To Value
Loading

Contract Name:
0 ETH

Compiler Version
0

Optimization Enabled:
0 ETH

Other Settings:
-NA-
Block Transaction Gas Used Reward
Age Block Fee Address BC Fee Address Voting Power Jailed Incoming
Block Uncle Number Difficulty Gas Used Reward
Loading
Loading
Make sure to use the "Vote Down" button for any spammy posts, and the "Vote Up" for interesting conversations.